GW6759 Weather Reports


time (UTC)temp
F
wind
direction
speed
knots
gust
knots
rain 1hr
in
rain 24hr
in
rain mn
in
humidity
%
barometer
mb
20260505152156 81 107 0.0 0.0 0.00 0.00 0.00 47 1017.9
20260505151651 80 142 0.9 0.9 0.00 0.00 0.00 46 1018.1
20260505151149 81 61 0.0 0.9 0.00 0.00 0.00 45 1018.1
20260505150645 80 87 0.0 0.0 0.00 0.00 0.00 47 1018.1
20260505150142 80 137 0.0 0.9 0.00 0.00 0.00 47 1018.2
20260505140610 76 131 0.0 0.0 0.00 0.00 0.00 52 1018.0
20260505140107 76 71 0.0 0.9 0.00 0.00 0.00 51 1018.0
20260505125024 70 99 0.9 0.9 0.00 0.00 0.00 57 1017.9
20260505124520 70 105 0.0 0.0 0.00 0.00 0.00 60 1018.2
20260505124017 70 101 0.0 0.9 0.00 0.00 0.00 58 1018.2
20260505123513 68 97 0.0 0.0 0.00 0.00 0.00 60 1018.3
20260505123009 68 123 0.0 0.9 0.00 0.00 0.00 62 1018.1
20260505122507 67 75 0.9 0.9 0.00 0.00 0.00 61 1018.2
20260505122004 66 109 0.0 0.9 0.00 0.00 0.00 63 1018.0
20260505121500 66 127 0.0 0.9 0.00 0.00 0.00 66 1018.0
20260505120956 65 99 0.0 0.0 0.00 0.00 0.00 66 1018.1
20260505120453 64 96 0.0 0.9 0.00 0.00 0.00 67 1017.9
20260505115952 63 260 0.0 0.0 0.00 0.00 0.00 68 1017.9
20260505115448 64 90 0.9 0.9 0.00 0.00 0.00 67 1017.8
20260505114947 63 112 0.0 0.0 0.00 0.00 0.00 69 1017.9
20260505114442 62 74 0.0 0.0 0.00 0.00 0.00 70 1018.0
20260505113940 61 111 0.0 0.0 0.00 0.00 0.00 73 1017.9
20260505113436 59 102 0.0 0.0 0.00 0.00 0.00 74 1018.0
20260505112932 58 114 0.0 0.0 0.00 0.00 0.00 78 1017.7
20260505112429 57 97 0.0 0.0 0.00 0.00 0.00 80 1017.7
20260505111925 56 94 0.0 0.0 0.00 0.00 0.00 79 1017.6
20260505111420 56 93 0.0 0.0 0.00 0.00 0.00 81 1017.7
20260505110917 55 93 0.0 0.0 0.00 0.00 0.00 81 1017.5
20260505110414 55 93 0.0 0.0 0.00 0.00 0.00 82 1017.5
20260505101844 53 92 0.0 0.0 0.00 0.00 0.00 82 1017.1
20260505101339 54 141 0.0 0.0 0.00 0.00 0.00 81 1017.0
20260505100835 54 141 0.0 0.0 0.00 0.00 0.00 81 1017.0
20260505100332 53 109 0.0 0.0 0.00 0.00 0.00 82 1016.9
20260505095827 54 109 0.0 0.0 0.00 0.00 0.00 81 1016.9
20260505095326 53 106 0.0 0.0 0.00 0.00 0.00 82 1016.8
20260505094821 53 111 0.0 0.0 0.00 0.00 0.00 82 1016.7
20260505094318 53 91 0.0 0.0 0.00 0.00 0.00 82 1016.7
20260505093814 53 130 0.0 0.0 0.00 0.00 0.00 83 1016.8
20260505093312 53 130 0.0 0.0 0.00 0.00 0.00 83 1016.6
20260505092808 53 130 0.0 0.0 0.00 0.00 0.00 83 1016.7
20260505092307 54 130 0.0 0.0 0.00 0.00 0.00 82 1016.7
20260505091804 54 130 0.0 0.0 0.00 0.00 0.00 81 1016.7
20260505091302 54 130 0.0 0.0 0.00 0.00 0.00 80 1016.5
20260505090800 54 130 0.0 0.0 0.00 0.00 0.00 80 1016.6
20260505090258 54 130 0.0 0.0 0.00 0.00 0.00 80 1016.6
20260505085754 54 130 0.0 0.0 0.00 0.00 0.00 80 1016.5
20260505085253 54 130 0.0 0.0 0.00 0.00 0.00 80 1016.5
20260505084749 55 130 0.0 0.0 0.00 0.00 0.00 79 1016.7
20260505084249 55 131 0.0 0.0 0.00 0.00 0.00 78 1016.7
20260505083745 55 136 0.0 0.0 0.00 0.00 0.00 79 1016.6
20260505083242 55 136 0.0 0.0 0.00 0.00 0.00 78 1016.3
20260505082738 55 136 0.0 0.0 0.00 0.00 0.00 78 1016.4
20260505082235 55 136 0.0 0.0 0.00 0.00 0.00 77 1016.5
20260505081731 55 136 0.0 0.0 0.00 0.00 0.00 76 1016.3
20260505081229 56 136 0.0 0.0 0.00 0.00 0.00 76 1016.5
20260505080726 56 136 0.0 0.0 0.00 0.00 0.00 76 1016.2
20260505080221 57 136 0.0 0.0 0.00 0.00 0.00 74 1016.5
20260505075717 57 136 0.0 0.0 0.00 0.00 0.00 74 1016.4
20260505075214 57 136 0.0 0.0 0.00 0.00 0.00 73 1016.3
20260505074712 57 136 0.0 0.0 0.00 0.00 0.00 74 1016.3
20260505074208 57 136 0.0 0.0 0.00 0.00 0.00 74 1016.2
20260505073706 57 136 0.0 0.0 0.00 0.00 0.00 73 1016.1
20260505073204 58 136 0.0 0.0 0.00 0.00 0.00 72 1016.1
20260505072659 58 136 0.0 0.0 0.00 0.00 0.00 73 1016.1
20260505072156 58 136 0.0 0.0 0.00 0.00 0.00 72 1016.0
20260505071651 58 135 0.0 0.0 0.00 0.00 0.00 72 1016.1
20260505071149 58 84 0.0 0.0 0.00 0.00 0.00 71 1016.1
20260505070646 59 109 0.0 0.0 0.00 0.00 0.00 71 1016.2
20260505070143 59 98 0.0 0.0 0.00 0.00 0.00 70 1016.0
20260505065639 59 64 0.0 0.9 0.00 0.00 0.00 69 1015.9
20260505065135 59 63 0.0 0.0 0.00 0.00 0.00 69 1016.2
20260505064632 59 37 0.9 0.9 0.00 0.00 0.00 70 1016.1
20260505064131 60 17 0.0 0.0 0.00 0.00 0.00 70 1016.2
20260505063628 60 16 0.0 0.0 0.00 0.00 0.00 70 1016.1
20260505063124 60 52 0.0 0.0 0.00 0.00 0.00 69 1016.0
20260505062620 60 296 0.0 0.0 0.00 0.00 0.00 68 1016.2
20260505062118 60 15 0.0 0.0 0.00 0.00 0.00 69 1016.0
20260505061615 60 90 0.0 0.0 0.00 0.00 0.00 68 1015.9
20260505061113 60 267 0.0 0.0 0.00 0.00 0.00 68 1016.0
20260505060610 61 21 0.0 0.0 0.00 0.00 0.00 67 1016.0
20260505060107 61 68 0.0 0.0 0.00 0.00 0.00 66 1016.2
20260505055602 61 140 0.9 1.7 0.00 0.00 0.00 66 1016.0
20260505055059 61 343 0.9 1.7 0.00 0.00 0.00 67 1016.1
20260505054556 61 305 0.0 0.0 0.00 0.00 0.00 66 1016.0
20260505054054 61 45 0.9 0.9 0.00 0.00 0.00 67 1016.0
20260505053551 61 190 0.0 0.0 0.00 0.00 0.00 66 1016.2
20260505053048 61 163 0.0 0.9 0.00 0.00 0.00 66 1016.2
20260505052544 61 156 0.0 0.0 0.00 0.00 0.00 65 1016.3
20260505052042 62 304 0.9 0.9 0.00 0.00 0.00 66 1016.2
20260505051539 62 4 3.5 3.5 0.00 0.00 0.00 66 1016.1
20260505051037 62 28 0.0 0.0 0.00 0.00 0.00 65 1016.2
20260505050535 62 70 0.0 0.9 0.00 0.00 0.00 65 1016.2
20260505041502 63 31 0.9 1.7 0.00 0.00 0.00 64 1016.2
20260505041000 63 130 0.0 0.0 0.00 0.00 0.00 63 1016.2
20260505040457 63 125 0.0 0.0 0.00 0.00 0.00 63 1016.4
20260505035954 64 37 0.0 0.9 0.00 0.00 0.00 63 1016.2
20260505035450 64 115 0.0 0.0 0.00 0.00 0.00 62 1016.2
20260505034947 64 142 0.0 0.0 0.00 0.00 0.00 62 1016.3
20260505034443 64 136 0.9 0.9 0.00 0.00 0.00 62 1016.2
20260505033941 64 44 0.0 0.0 0.00 0.00 0.00 62 1016.1
20260505033437 64 154 0.0 0.9 0.00 0.00 0.00 62 1016.0
20260505032936 64 55 0.0 0.0 0.00 0.00 0.00 62 1016.3
20260505032432 65 36 0.9 0.9 0.00 0.00 0.00 62 1016.1
20260505031929 65 55 0.0 0.0 0.00 0.00 0.00 61 1016.0
20260505031426 65 341 0.9 0.9 0.00 0.00 0.00 61 1016.1
20260505030923 65 39 0.0 0.0 0.00 0.00 0.00 61 1016.0
20260505030419 66 98 0.0 0.0 0.00 0.00 0.00 60 1016.1
20260505025914 66 83 0.9 0.9 0.00 0.00 0.00 61 1016.2
20260505025412 66 28 0.9 1.7 0.00 0.00 0.00 60 1016.1
20260505024911 66 139 0.0 0.0 0.00 0.00 0.00 59 1016.2
20260505024408 66 39 1.7 1.7 0.00 0.00 0.00 60 1016.1
20260505023904 66 181 0.9 1.7 0.00 0.00 0.00 59 1016.3
20260505023402 67 199 0.9 0.9 0.00 0.00 0.00 58 1016.0
20260505022859 67 100 0.0 0.9 0.00 0.00 0.00 58 1016.1
20260505022356 67 34 0.0 0.9 0.00 0.00 0.00 58 1016.1
20260505021853 67 23 0.9 1.7 0.00 0.00 0.00 57 1015.8
20260505021349 67 62 0.0 0.0 0.00 0.00 0.00 55 1015.9
20260505020845 68 208 0.9 0.9 0.00 0.00 0.00 54 1015.9
20260505020341 68 316 0.0 0.0 0.00 0.00 0.00 52 1016.0
20260505015838 68 79 0.0 0.9 0.00 0.00 0.00 51 1015.8
20260505015335 68 169 0.9 0.9 0.00 0.00 0.00 48 1015.6
20260505014833 68 2 0.9 1.7 0.00 0.00 0.00 45 1015.8
20260505014329 68 163 0.0 0.9 0.00 0.00 0.00 44 1015.4
20260505013826 68 97 0.0 0.0 0.00 0.00 0.00 45 1015.5
20260505013323 68 336 0.0 0.9 0.00 0.00 0.00 46 1015.3
20260505012822 68 41 0.0 0.9 0.00 0.00 0.00 45 1015.4
20260505012319 69 80 0.0 0.0 0.00 0.00 0.00 44 1015.3
20260505011814 68 155 0.0 0.0 0.00 0.00 0.00 44 1015.2
20260505011312 69 337 0.9 0.9 0.00 0.00 0.00 46 1015.2
20260505010808 69 103 0.0 0.9 0.00 0.00 0.00 45 1014.9
20260505010304 69 63 0.0 0.0 0.00 0.00 0.00 45 1015.1
20260505005800 69 173 0.0 0.9 0.00 0.00 0.00 43 1014.9
20260505005257 69 75 0.0 0.0 0.00 0.00 0.00 43 1014.8
20260505004755 70 284 0.0 0.9 0.00 0.00 0.00 43 1014.6
20260505004250 70 318 0.0 0.0 0.00 0.00 0.00 42 1014.7
20260505003748 70 41 0.9 0.9 0.00 0.00 0.00 42 1014.6
20260505003246 70 351 0.9 0.9 0.00 0.00 0.00 42 1014.7
20260505002742 70 64 0.0 0.0 0.00 0.00 0.00 42 1014.6
20260505002239 70 65 0.0 0.0 0.00 0.00 0.00 42 1014.5
20260505001737 71 32 0.0 0.0 0.00 0.00 0.00 41 1014.5
20260505001234 71 6 0.9 0.9 0.00 0.00 0.00 41 1014.6
20260505000731 71 119 0.0 0.0 0.00 0.00 0.00 39 1014.5
20260505000229 72 152 0.0 0.0 0.00 0.00 0.00 39 1014.7
20260504235725 72 104 0.0 0.0 0.00 0.00 0.00 38 1014.3
20260504235221 72 247 0.0 0.0 0.00 0.00 0.00 40 1014.4
20260504234719 73 66 0.0 0.9 0.00 0.00 0.00 39 1014.4
20260504234216 73 159 0.0 0.0 0.00 0.00 0.00 38 1014.4
20260504233712 74 249 0.0 0.9 0.00 0.00 0.00 38 1014.3
20260504233208 74 47 0.0 0.9 0.00 0.00 0.00 37 1014.0
20260504232705 75 29 0.0 0.0 0.00 0.00 0.00 37 1014.0
20260504232202 75 133 0.0 0.0 0.00 0.00 0.00 36 1014.1
20260504231659 74 91 0.0 0.9 0.00 0.00 0.00 36 1014.0
20260504231155 75 130 0.0 0.0 0.00 0.00 0.00 36 1014.0
20260504230651 75 303 0.0 0.0 0.00 0.00 0.00 35 1014.0
20260504230150 75 287 0.0 0.9 0.00 0.00 0.00 36 1014.0
20260504225648 76 7 0.9 0.9 0.00 0.00 0.00 36 1013.9
20260504225144 76 131 0.0 0.0 0.00 0.00 0.00 36 1014.0
20260504224641 76 179 0.0 0.9 0.00 0.00 0.00 34 1013.9
20260504224138 76 38 0.0 0.0 0.00 0.00 0.00 35 1014.0
20260504223635 77 33 0.0 0.9 0.00 0.00 0.00 35 1014.0
20260504223131 77 140 0.0 0.0 0.00 0.00 0.00 34 1014.1
20260504222628 77 32 0.0 0.9 0.00 0.00 0.00 35 1014.1
20260504222125 77 9 0.9 0.9 0.00 0.00 0.00 33 1014.0
20260504221622 77 286 0.9 1.7 0.00 0.00 0.00 32 1013.9
20260504221119 77 42 1.7 1.7 0.00 0.00 0.00 32 1014.1
20260504220615 78 37 0.9 1.7 0.00 0.00 0.00 32 1014.2
20260504220113 78 255 0.0 0.0 0.00 0.00 0.00 32 1014.0
20260504215609 78 286 0.9 0.9 0.00 0.00 0.00 32 1014.0
20260504215107 78 160 0.0 0.9 0.00 0.00 0.00 34 1014.2
20260504214603 78 334 0.0 0.0 0.00 0.00 0.00 34 1014.1
20260504214059 78 69 0.0 0.9 0.00 0.00 0.00 33 1013.9
20260504213555 78 310 0.0 0.0 0.00 0.00 0.00 32 1014.0
20260504213053 78 300 0.9 0.9 0.00 0.00 0.00 34 1014.1
20260504212548 78 357 0.9 1.7 0.00 0.00 0.00 32 1014.3
20260504212046 78 353 0.0 0.0 0.00 0.00 0.00 33 1014.1
20260504211543 78 15 0.9 1.7 0.00 0.00 0.00 33 1014.1
20260504211040 78 10 0.0 0.9 0.00 0.00 0.00 33 1014.1
20260504210537 79 187 0.0 0.9 0.00 0.00 0.00 34 1014.2
20260504210033 78 291 0.0 0.0 0.00 0.00 0.00 34 1014.0
20260504205531 79 6 0.9 1.7 0.00 0.00 0.00 32 1014.0
20260504205029 79 74 0.9 1.7 0.00 0.00 0.00 31 1014.2
20260504204527 79 357 0.0 0.0 0.00 0.00 0.00 32 1014.2
20260504204026 79 339 0.0 0.9 0.00 0.00 0.00 33 1014.4
20260504203523 79 137 0.0 0.9 0.00 0.00 0.00 34 1014.5
20260504203021 78 124 0.0 0.0 0.00 0.00 0.00 33 1014.2
20260504202516 78 38 0.0 0.0 0.00 0.00 0.00 34 1014.4
20260504202013 79 172 1.7 1.7 0.00 0.00 0.00 35 1014.4
20260504201510 79 22 0.0 0.9 0.00 0.00 0.00 33 1014.6
20260504201008 78 237 0.9 1.7 0.00 0.00 0.00 33 1014.7
20260504200504 78 274 0.0 0.0 0.00 0.00 0.00 33 1014.5
20260504200000 79 291 0.0 0.0 0.00 0.00 0.00 32 1014.7
20260504195456 79 172 0.0 0.0 0.00 0.00 0.00 35 1014.6
20260504194953 79 276 0.0 0.9 0.00 0.00 0.00 32 1014.6
20260504194449 78 86 0.0 0.0 0.00 0.00 0.00 33 1014.9
20260504193945 78 81 0.9 0.9 0.00 0.00 0.00 34 1014.8
20260504193443 78 186 0.9 0.9 0.00 0.00 0.00 33 1014.9
20260504192942 78 57 0.0 0.9 0.00 0.00 0.00 33 1014.9
20260504192438 78 255 0.0 0.0 0.00 0.00 0.00 34 1015.0
20260504191937 78 22 2.6 2.6 0.00 0.00 0.00 33 1014.8
20260504191435 78 235 0.0 0.9 0.00 0.00 0.00 33 1015.1
20260504190930 78 36 0.0 0.9 0.00 0.00 0.00 34 1015.0
20260504190425 78 16 0.0 0.9 0.00 0.00 0.00 33 1015.1
20260504185923 78 61 0.0 0.9 0.00 0.00 0.00 35 1015.3
20260504185420 79 75 0.9 0.9 0.00 0.00 0.00 34 1015.5
20260504184915 78 350 0.9 0.9 0.00 0.00 0.00 35 1015.5
20260504184411 78 121 0.0 0.9 0.00 0.00 0.00 33 1015.6
20260504183908 78 256 0.0 0.9 0.00 0.00 0.00 34 1015.6
20260504183405 77 296 0.0 0.0 0.00 0.00 0.00 33 1015.9
20260504182903 77 22 0.9 0.9 0.00 0.00 0.00 34 1015.6
20260504182400 77 56 0.9 1.7 0.00 0.00 0.00 34 1015.5
20260504181856 77 335 1.7 1.7 0.00 0.00 0.00 34 1015.6
20260504181354 77 303 0.0 0.9 0.00 0.00 0.00 33 1015.9
20260504180853 77 41 0.9 0.9 0.00 0.00 0.00 37 1016.0
20260504180350 78 145 0.0 0.0 0.00 0.00 0.00 34 1015.9
20260504175848 78 282 0.9 1.7 0.00 0.00 0.00 36 1015.8
20260504175345 78 145 0.0 0.0 0.00 0.00 0.00 36 1016.1
20260504174843 78 272 0.0 0.0 0.00 0.00 0.00 35 1016.0
20260504174340 78 12 1.7 1.7 0.00 0.00 0.00 36 1016.3
20260504173837 79 5 1.7 1.7 0.00 0.00 0.00 37 1016.3
20260504173334 78 196 0.9 0.9 0.00 0.00 0.00 34 1016.2
20260504172831 78 305 1.7 2.6 0.00 0.00 0.00 35 1016.3
20260504172328 78 196 0.0 0.9 0.00 0.00 0.00 35 1016.2
20260504171823 79 230 0.0 0.9 0.00 0.00 0.00 36 1016.7
20260504171321 79 245 0.0 0.0 0.00 0.00 0.00 37 1016.7
20260504170818 80 209 0.0 0.9 0.00 0.00 0.00 35 1016.7
20260504170315 79 201 0.9 0.9 0.00 0.00 0.00 37 1016.9
20260504160233 79 108 0.0 0.0 0.00 0.00 0.00 39 1017.5